STARLINK-30112 (56306 NORAD) Tracking and Keplerian Element Data

This shows tracking and keplerian element data for the satellite.

Feedback or suggestion? Click here.




ElementValue
Catalog56306
NameSTARLINK-30112
Epoch Orbit325
Epoch Day127.25001157
Epoch Year2023
RAAN97.2551
Inclination43.0024
Eccentricity0.0001229
Argument of Perigee262.3265
Mean Anonmoly334.0805
Mean Motion15.51924853
Decay Rate-0.00635429
L11 56306U 23056W 23127.25001157 -.00635429 00000+0 -11178-1 0 9991
L22 56306 43.0024 97.2551 0001229 262.3265 334.0805 15.51924853 3250



Live tracking and technical data element details for STARLINK-30112 (NORAD 56306). STARLINK-30112 can be tracked NOW for your location showing map with azimuth and elevation plus other details from your city location.







IsCatalogInMostPopularTable: catalog: 56306, numindb: 4
Update: records affected: 1



GetName: 56306 STARLINK-30112

Hit Count: updated at: Wed, 07 Jun 2023 09:06:45 GMT